Location: Caixon
(43.4106°N, 0.0273°E)
Time: 16:23:05
(UTC+00:00)

Cosmos 2221 Rocket - Pass Details

Date: 16 October 2021
Orbit: 621 x 647 km, 82.5° (Epoch: 28 November)

Event Time Altitude Azimuth Distance (km) Brightness Sun altitude
Rises 05:16:25 0° 216° (SW) 2,899 6.7 -11.4°
Reaches altitude 10° 05:18:55 10° 228° (SW) 1,994 5.7 -11.0°
Maximum altitude 05:22:40 27° 286° (WNW) 1,213 4.5 -10.3°
Drops below altitude 10° 05:26:26 10° 345° (NNW) 2,000 6.0 -9.6°
Sets 05:28:58 0° 358° (N) 2,911 7.0 -9.1°
